Date String (YYYY-MM-DD hh:mm:ss) UTC,Instrument flags,absolute air pressure of the measurement (hPa),sample flow rate (lpm),inlet stack bypass flow (lpm),air temperature of the measurement (°C),ambient temperature measured by the external sensor (°C),aerosol sample conditioner tube jacket temperature (°C),OPC LED temperature (°C),internal box temperature (°C),relative humidity of the measurement (%),span deviation,mass concentration of particles derived from Lorenz-Mie calculation of OPC scattering (μg/m³),mass concentration of particles derived from Lorenz-Mie calculation of OPC scattering (μg/m³),mass concentration of particles derived from Lorenz-Mie calculation of OPC scattering (μg/m³)
DateTimeUTC,F1_M11,P_M11,Q1_M11,Q2_M11,T1_M11,T2_M11,T3_M11,T4_M11,T5_M11,U1_M11,ZSPAN_M11,X0_M11,X2_M11,X1_M11
2024-05-31 03:00:00,SystemResetWarning,0830.1,5.00,000.00,030.2,029.7,000.0,038.4,032.0,023.8,0000.0,0018.93,0005.66,0003.65
2024-05-31 03:01:00,SystemResetWarning,0830.1,5.01,000.00,030.3,029.8,000.0,038.4,032.1,024.4,0000.0,0017.79,0005.46,0003.60
2024-05-31 03:02:00,SystemResetWarning,0830.0,5.00,000.00,030.3,029.8,000.0,038.5,032.1,024.1,0000.0,0016.61,0005.19,0003.54
2024-05-31 03:03:00,SystemResetWarning,0830.1,4.99,000.00,030.4,029.9,000.0,038.5,032.2,023.9,0000.0,0015.99,0005.12,0003.53
2024-05-31 03:04:00,SystemResetWarning,0830.1,4.99,000.00,030.4,029.9,000.0,038.5,032.2,023.8,0000.0,0014.61,0005.14,0003.53
2024-05-31 03:05:00,SystemResetWarning,0830.0,5.01,000.00,030.4,029.9,000.0,038.6,032.3,023.8,0000.0,0014.30,0005.14,0003.54
2024-05-31 03:06:00,SystemResetWarning,0830.0,5.01,000.00,030.5,030.0,000.0,038.6,032.3,023.9,0000.0,0014.32,0005.13,0003.54
2024-05-31 03:07:00,SystemResetWarning,0830.0,5.00,000.00,030.5,029.7,000.0,038.7,032.1,024.1,0000.0,0013.56,0005.10,0003.55
2024-05-31 03:08:00,SystemResetWarning,0829.8,4.99,000.00,030.2,027.2,000.0,038.7,030.9,024.5,0000.0,0013.10,0005.10,0003.58
2024-05-31 03:09:00,SystemResetWarning,0829.8,5.03,000.00,029.7,026.1,000.0,038.7,030.3,025.2,0000.0,0013.33,0005.22,0003.61
2024-05-31 03:10:00,SystemResetWarning,0829.8,4.99,000.00,029.5,026.4,000.0,038.6,030.3,025.1,0000.0,0013.49,0005.24,0003.63
2024-05-31 03:11:00,SystemResetWarning,0829.8,5.00,000.00,029.5,026.8,000.0,038.4,030.6,025.1,0000.0,0013.74,0005.17,0003.63
2024-05-31 03:12:00,SystemResetWarning,0829.8,5.00,000.00,029.5,027.3,000.0,038.3,030.9,025.4,0000.0,0013.52,0005.16,0003.65
2024-05-31 03:13:00,SystemResetWarning,0829.8,5.00,000.00,029.5,027.7,000.0,038.2,031.0,025.3,0000.0,0014.18,0005.26,0003.66
2024-05-31 03:14:00,SystemResetWarning,0829.8,5.00,000.00,029.5,028.0,000.0,038.2,031.1,025.3,0000.0,0014.41,0005.24,0003.66
2024-05-31 03:15:00,SystemResetWarning,0829.8,5.00,000.00,029.6,028.2,000.0,038.2,031.3,025.3,0000.0,0014.44,0005.20,0003.64
2024-05-31 03:16:00,SystemResetWarning,0829.9,5.01,000.00,029.6,028.5,000.0,038.2,031.3,024.9,0000.0,0013.45,0005.15,0003.64
2024-05-31 03:17:00,SystemResetWarning,0829.9,5.00,000.00,029.7,028.7,000.0,038.2,031.4,024.5,0000.0,0013.36,0005.16,0003.63
2024-05-31 03:18:00,SystemResetWarning,0829.9,4.99,000.00,029.7,028.8,000.0,038.2,031.5,024.5,0000.0,0012.96,0005.13,0003.62
2024-05-31 03:19:00,SystemResetWarning,0830.0,5.00,000.00,029.8,029.0,000.0,038.2,031.6,024.2,0000.0,0012.84,0005.07,0003.60
2024-05-31 03:20:00,SystemResetWarning,0830.0,5.00,000.00,029.8,029.1,000.0,038.2,031.6,024.1,0000.0,0012.46,0004.94,0003.58
2024-05-31 03:21:00,SystemResetWarning,0830.0,5.00,000.00,029.9,029.2,000.0,038.2,031.7,023.9,0000.0,0012.37,0004.86,0003.56
2024-05-31 03:22:00,SystemResetWarning,0830.0,5.00,000.00,029.9,029.3,000.0,038.2,031.7,024.0,0000.0,0012.73,0004.87,0003.55
2024-05-31 03:23:00,SystemResetWarning,0830.1,5.00,000.00,030.0,029.4,000.0,038.2,031.8,024.0,0000.0,0013.01,0004.81,0003.52
2024-05-31 03:24:00,SystemResetWarning,0830.0,5.00,000.00,030.0,029.4,000.0,038.2,031.8,024.0,0000.0,0012.66,0004.69,0003.49
2024-05-31 03:25:00,SystemResetWarning,0830.0,4.99,000.00,030.1,029.5,000.0,038.3,031.9,024.0,0000.0,0013.30,0004.69,0003.48
2024-05-31 03:26:00,SystemResetWarning,0830.0,4.99,000.00,030.1,029.6,000.0,038.3,031.9,024.0,0000.0,0013.34,0004.65,0003.47
2024-05-31 03:27:00,SystemResetWarning,0830.0,5.00,000.00,030.1,029.6,000.0,038.3,032.0,024.0,0000.0,0013.71,0004.65,0003.45
2024-05-31 03:28:00,SystemResetWarning,0830.0,5.00,000.00,030.2,029.7,000.0,038.4,032.0,024.0,0000.0,0014.01,0004.62,0003.43
2024-05-31 03:29:00,SystemResetWarning,0830.0,5.01,000.00,030.2,029.7,000.0,038.4,032.0,023.9,0000.0,0014.12,0004.60,0003.42
2024-05-31 03:30:00,SystemResetWarning,0830.0,5.00,000.00,030.3,029.8,000.0,038.4,032.1,023.7,0000.0,0013.96,0004.60,0003.40
2024-05-31 03:31:00,SystemResetWarning,0830.0,5.01,000.00,030.3,029.8,000.0,038.5,032.1,023.6,0000.0,0014.12,0004.60,0003.38
2024-05-31 03:32:00,SystemResetWarning,0830.1,5.00,000.00,030.4,029.9,000.0,038.5,032.2,024.0,0000.0,0013.94,0004.60,0003.37
2024-05-31 03:33:00,SystemResetWarning,0830.1,5.00,000.00,030.4,029.9,000.0,038.5,032.2,024.6,0000.0,0013.35,0004.56,0003.36
2024-05-31 03:34:00,SystemResetWarning,0830.1,5.00,000.00,030.4,029.9,000.0,038.6,032.2,024.1,0000.0,0013.15,0004.60,0003.38
2024-05-31 03:35:00,SystemResetWarning,0830.2,5.00,000.00,030.5,030.0,000.0,038.6,032.3,024.4,0000.0,0012.82,0004.62,0003.38
2024-05-31 03:36:00,SystemResetWarning,0830.2,4.99,000.00,030.5,030.0,000.0,038.6,032.3,025.3,0000.0,0011.84,0004.56,0003.38
2024-05-31 03:37:00,SystemResetWarning,0830.3,5.00,000.00,030.5,030.0,000.0,038.6,032.3,024.8,0000.0,0011.67,0004.57,0003.39
2024-05-31 03:38:00,SystemResetWarning,0830.2,5.00,000.00,030.6,030.1,000.0,038.7,032.3,025.1,0000.0,0011.13,0004.55,0003.42
2024-05-31 03:39:00,SystemResetWarning,0830.2,4.99,000.00,030.6,030.1,000.0,038.7,032.4,024.2,0000.0,0010.99,0004.59,0003.45
2024-05-31 03:40:00,SystemResetWarning,0830.3,5.00,000.00,030.6,030.1,000.0,038.7,032.4,024.5,0000.0,0010.69,0004.62,0003.46
2024-05-31 03:41:00,SystemResetWarning,0830.2,5.00,000.00,030.6,030.1,000.0,038.8,032.4,024.5,0000.0,0010.66,0004.64,0003.49
2024-05-31 03:42:00,SystemResetWarning,0830.1,5.01,000.00,030.7,030.1,000.0,038.8,032.4,023.6,0000.0,0010.76,0004.70,0003.53
2024-05-31 03:43:00,SystemResetWarning,0830.1,4.99,000.00,030.7,030.2,000.0,038.8,032.5,023.1,0000.0,0011.09,0004.75,0003.54
2024-05-31 03:44:00,SystemResetWarning,0830.1,5.00,000.00,030.7,030.2,000.0,038.9,032.5,023.0,0000.0,0010.98,0004.84,0003.56
2024-05-31 03:45:00,SystemResetWarning,0830.1,5.00,000.00,030.7,030.2,000.0,038.9,032.5,022.8,0000.0,0010.58,0004.84,0003.56
2024-05-31 03:46:00,SystemResetWarning,0830.1,4.99,000.00,030.7,029.8,000.0,038.9,032.3,022.8,0000.0,0010.83,0004.82,0003.55
2024-05-31 03:47:00,SystemResetWarning,0830.1,4.99,000.00,030.4,027.2,000.0,038.9,031.1,023.2,0000.0,0011.09,0004.83,0003.55
2024-05-31 03:48:00,SystemResetWarning,0830.0,5.02,000.00,029.9,026.1,000.0,038.9,030.4,023.8,0000.0,0011.19,0004.83,0003.55
2024-05-31 03:49:00,SystemResetWarning,0830.1,4.99,000.00,029.7,026.4,000.0,038.8,030.4,024.1,0000.0,0011.21,0004.83,0003.53
2024-05-31 03:50:00,SystemResetWarning,0830.1,5.00,000.00,029.7,026.9,000.0,038.6,030.7,024.1,0000.0,0010.80,0004.75,0003.51
2024-05-31 03:51:00,SystemResetWarning,0830.1,5.00,000.00,029.7,027.3,000.0,038.5,031.0,024.0,0000.0,0010.82,0004.72,0003.49
2024-05-31 03:52:00,SystemResetWarning,0830.1,5.00,000.00,029.7,027.7,000.0,038.4,031.1,024.0,0000.0,0011.08,0004.72,0003.47
2024-05-31 03:53:00,SystemResetWarning,0830.2,5.00,000.00,029.7,028.0,000.0,038.4,031.2,024.2,0000.0,0011.57,0004.74,0003.44
2024-05-31 03:54:00,SystemResetWarning,0830.2,5.00,000.00,029.7,028.3,000.0,038.3,031.3,024.4,0000.0,0011.25,0004.70,0003.44
2024-05-31 03:55:00,SystemResetWarning,0830.2,5.00,000.00,029.7,028.5,000.0,038.3,031.4,024.4,0000.0,0011.46,0004.65,0003.45
2024-05-31 03:56:00,SystemResetWarning,0830.2,5.00,000.00,029.8,028.7,000.0,038.3,031.5,024.0,0000.0,0011.49,0004.65,0003.46
2024-05-31 03:57:00,SystemResetWarning,0830.1,5.00,000.00,029.8,028.9,000.0,038.2,031.5,023.9,0000.0,0011.03,0004.62,0003.46
2024-05-31 03:58:00,SystemResetWarning,0830.1,5.00,000.00,029.9,029.0,000.0,038.2,031.6,023.7,0000.0,0010.67,0004.62,0003.46
2024-05-31 03:59:00,SystemResetWarning,0830.1,4.99,000.00,029.9,029.1,000.0,038.2,031.7,024.1,0000.0,0010.81,0004.60,0003.45
